Location: Cape Cod Imaging Station
(41.7417°N, 70.1583°W)
Time: 23:32:38
(UTC-04:00)

Tiangong 2 - Visible Passes

Search period start: 19 October 2017 00:00
Search period end: 29 October 2017 00:00
Orbit: 388 x 392 km, 42.8° (Epoch: 19 October)

Date Brightness Start Highest point End Pass type
(mag) Time Alt. Az. Time Alt. Az. Time Alt. Az.
19 Oct 2.5 05:00:31 35° SE 05:00:31 35° SE 05:02:34 10° ESE visible
20 Oct 2.4 05:38:00 25° SW 05:38:12 25° SSW 05:40:53 10° SSE visible
21 Oct 4.2 04:43:13 12° SE 04:43:13 12° SE 04:43:28 10° SE visible
22 Oct 3.9 05:20:51 10° S 05:20:51 10° S 05:20:54 10° S visible
28 Oct 3.9 19:19:13 10° S 19:19:14 10° S 19:19:14 10° S visible
